Regional Weather Roundup
Issued by NWS Albany, NY

Home | Current Version | Previous Version | Text Only | Print | Product List | Glossary On
Versions: 1 2 3 4 5 6 7 8 9 10 11 12 13 14 15 16 17 18 19 20 21 22 23 24 25 26 27 28 29 30 31 32 33 34 35 36 37 38 39 40 41 42 43 44 45 46 47 48 49
000
ASUS41 KALY 190710
RWRALY

NEW YORK STATE HOURLY WEATHER ROUNDUP
NATIONAL WEATHER SERVICE ALBANY NY
200 AM EST FRI DEC 19 2014

NOTE: "FAIR" INDICATES FEW OR NO CLOUDS BELOW 12,000 FEET WITH NO
SIGNIFICANT WEATHER AND/OR NO OBSTRUCTIONS TO VISIBILITY.

NYZ032-033-038>043-046>054-057>066-NYZ062>081-190800-
EAST


CITY           SKY/WX    TMP DP  RH WIND       PRES   REMARKS
ALBANY         CLOUDY    32  24  72 W13       29.96R WCI  22
GLENS FALLS    CLOUDY    31  21  66 NW10      29.94R WCI  22
POUGHKEEPSIE   CLOUDY    37  25  61 NW5       29.95S WCI  33
NEWBURGH       CLOUDY    34  27  75 NW14      29.96R WCI  24
MONTGOMERY     CLOUDY    35  25  66 NW6       29.95R WCI  30
WHITE PLAINS   MOCLDY    35  25  66 NW10      29.93S WCI  27
ISLIP          CLOUDY    33  27  78 W5        29.94S WCI  29
NEW YORK CITY  CLOUDY    38  27  64 NW13      29.96S WCI  30
CENTRAL PARK   CLOUDY    37  25  61 CALM      29.98S
$$

NYZ005>009-017-018-044>046-055-056-190800-
CENTRAL


CITY           SKY/WX    TMP DP  RH WIND       PRES   REMARKS
FULTON         CLOUDY    29  23  78 W14       30.03R WCI  18
SYRACUSE       FRZ DRZL  28  24  85 W13       30.03S WCI  17
ROME           CLOUDY    28  25  88 W9        30.02R WCI  19
ELMIRA         CLOUDY    31  26  82 NW6       30.02R WCI  25
BINGHAMTON     CLOUDY    27  25  92 NW9       29.95R WCI  18
MONTICELLO     CLOUDY    28  27  93 NW7       29.93S WCI  21
$$

NYZ026>034-041>043-190800-
NORTH


CITY           SKY/WX    TMP DP  RH WIND       PRES   REMARKS
WATERTOWN      CLOUDY    27  21  78 NW8       30.03S WCI  19
FORT DRUM      NOT AVBL
MASSENA        CLOUDY    25  19  78 W12       30.02R WCI  14
SARANAC LAKE   CLOUDY    20  32 100 W5        29.87S WCI  13
PLATTSBURGH    CLOUDY    28  21  75 NW10      29.95S WCI  19
$$

NYZ001>004-010>016-019>021-190800-
WEST


CITY           SKY/WX    TMP DP  RH WIND       PRES   REMARKS
BUFFALO        CLOUDY    26  20  77 W14       30.09R WCI  14
DUNKIRK        CLOUDY    28  25  88 NW9       30.10S WCI  19
JAMESTOWN      CLOUDY    27  21  80 NW9       30.04R WCI  17
WELLSVILLE     FRZ RAIN  26  23  88 NW14      29.99R WCI  14
ROCHESTER      FRZ DRZL  27  23  85 NW12      30.08R WCI  17
PENN YAN       CLOUDY    29  23  78 W15G22    30.03R WCI  18
$$

             KEY
       WCI = WIND CHILL INDEX
       VSB = VISIBILITY
       HX  = HEAT INDEX
$$



USA.gov is the U.S. government's official web portal to all federal, state and local government web resources and services.